Temperature
17 17 17 17 17 17 17 17 17 17 17 17 17 17 16 16 16 16 16 16 16 16 16 16 16 16 16 16 16 15 15 15 15 15 15 15 15 15 15 15 15 15 14
18 17 17 17 17 17 17 17 17 17 17 17 17 17 16 16 16 16 16 16 16 16 16 16 16 15 15 15 15 15 15 15 15 15 15 15 15 14 14 14 14 14 14
18 17 17 17 17 17 17 17 17 17 17 17 17 16 16 16 16 16 16 16 16 16 16 15 15 15 15 15 15 15 15 15 15 15 15 15 14 14 14 14 14 14 14
17 17 17 17 17 17 17 17 17 17 17 17 16 16 16 16 16 16 16 16 15 15 15 15 15 15 15 15 15 15 15 15 15 15 14 14 14 14 14 14 14 14 13
17 17 16 16 16 17 17 17 17 17 17 16 16 16 16 16 16 16 15 15 15 15 15 15 15 15 15 15 15 15 15 15 14 14 14 14 14 13 13 13 13 13 13
17 16 16 16 16 16 16 16 16 16 16 16 16 16 16 16 16 16 15 15 15 15 15 15 15 15 15 15 15 15 14 14 14 14 14 14 13 13 13 13 13 13 13
16 16 16 16 16 16 16 16 16 16 16 16 16 16 16 16 16 15 15 15 15 15 15 15 15 14 14 14 14 14 14 14 14 14 14 13 13 13 13 13 12 12 12
16 16 16 16 16 16 16 16 16 16 16 16 16 16 16 16 15 15 15 15 15 15 15 14 14 14 14 14 14 14 14 14 14 14 13 13 13 13 12 12 12 12 12
16 16 16 16 16 16 16 16 16 16 16 16 16 16 15 15 15 15 15 15 15 14 14 14 14 14 14 14 14 14 14 13 13 13 13 13 13 12 12 12 12 11 11
15 15 15 15 15 15 15 15 16 15 15 15 15 15 15 15 15 15 15 15 14 14 14 14 14 14 14 14 14 14 13 13 13 13 13 13 12 12 11 11 11 11 11
15 15 15 15 15 15 15 15 15 15 15 15 15 15 15 15 15 15 15 14 14 14 14 14 14 14 14 14 13 13 13 13 13 13 13 12 12 11 11 11 11 11 10
14 15 15 15 15 15 15 15 15 15 15 15 15 15 15 15 15 14 14 14 14 14 14 14 14 13 13 13 13 13 13 13 13 13 12 12 12 11 11 10 10 10 10
14 14 14 15 15 15 15 15 15 15 15 15 15 15 15 15 14 14 14 14 14 14 14 13 13 13 13 13 13 13 13 13 13 12 12 12 11 11 11 10 10 10 10
14 14 14 14 14 14 15 15 14 14 15 14 14 14 14 14 14 14 14 14 14 14 13 13 13 13 13 13 13 13 12 12 12 12 12 12 11 11 10 10 10 9 9
14 14 14 14 14 14 14 14 14 14 14 14 14 14 14 14 14 14 14 14 13 13 13 13 13 13 12 12 12 12 12 12 12 11 11 11 11 11 10 10 9 9 9
14 14 14 14 14 14 14 14 14 14 14 14 14 14 14 14 14 14 14 13 13 13 13 13 12 12 12 12 12 12 12 12 11 11 11 11 10 10 10 9 9 9 8
14 14 14 14 14 14 14 14 14 14 13 13 14 14 14 13 13 13 13 13 13 13 12 12 12 12 12 12 12 12 11 11 11 11 10 10 10 10 9 9 9 8 8
13 13 13 13 13 13 13 13 13 13 13 13 13 13 13 13 13 13 13 13 13 12 12 12 12 12 12 12 11 11 11 11 10 10 10 10 9 9 9 9 8 8 8
13 13 13 13 13 13 13 13 13 13 13 13 13 13 13 13 13 13 13 12 12 12 12 12 12 12 11 11 11 11 11 10 10 10 9 9 9 9 8 8 8 8 7
13 13 13 13 13 13 13 12 12 12 12 12 12 12 12 13 12 12 12 12 12 12 12 11 11 11 11 11 11 11 10 10 10 9 9 9 8 8 8 8 7 7 7
13 13 12 12 12 12 12 12 12 12 12 12 12 12 12 12 12 12 12 12 12 12 11 11 11 11 11 10 10 10 10 10 9 9 9 8 8 8 7 7 7 7 6
12 12 12 12 12 12 12 12 12 12 12 12 12 12 12 12 12 12 12 12 11 11 11 11 11 10 10 10 10 9 9 9 9 9 8 8 7 7 7 7 6 6 6
12 12 12 12 12 12 12 12 12 11 11 11 11 11 11 11 11 11 11 11 11 11 11 11 10 10 10 9 9 8 8 8 8 8 8 7 7 7 6 6 6 6 5
12 12 11 12 12 12 12 11 11 11 11 11 11 11 11 11 11 11 11 11 11 10 10 10 10 9 9 9 8 8 7 7 6 6 7 7 7 6 6 5 5 5 5
11 11 11 11 11 11 11 11 11 11 11 11 11 11 11 11 11 11 11 10 10 10 10 9 9 9 9 8 8 8 7 6 6 5 5 6 6 6 5 5 5 5 4
11 11 11 11 11 11 11 11 11 11 11 11 11 10 10 10 10 10 10 10 10 10 9 9 9 8 8 8 7 7 6 6 5 5 4 5 5 5 5 5 4 4 4
Wind_Speed
6 9 16 18 18 17 17 17 18 18 18 18 18 17 17 17 17 16 16 16 16 16 16 17 17 17 17 17 17 17 16 16 16 16 16 16 15 15 15 14 14 13 14
9 13 18 19 19 18 18 18 18 18 18 18 17 17 17 17 16 16 16 16 16 16 16 17 17 17 17 16 16 16 16 16 16 16 15 14 14 14 14 13 13 12 13
12 14 18 19 19 19 18 18 18 17 17 17 17 17 16 16 16 16 16 16 16 16 16 16 16 16 16 16 15 15 15 15 16 15 14 13 12 13 13 13 13 13 13
13 15 16 19 19 19 18 18 18 17 17 17 17 16 16 16 16 16 16 16 16 16 16 16 16 16 15 15 15 15 15 15 15 14 13 12 11 13 13 13 13 13 13
11 14 17 19 19 19 18 18 18 17 17 17 16 16 16 16 16 16 15 15 15 15 15 15 15 15 14 14 15 15 15 15 14 13 12 12 11 12 13 13 12 12 12
10 13 17 19 19 18 18 18 17 17 17 16 16 16 16 16 16 15 15 15 15 15 15 15 14 14 14 14 14 15 15 14 13 12 12 11 10 11 12 12 11 11 11
10 12 16 18 18 18 17 17 17 17 16 16 16 16 16 16 15 15 15 14 14 14 14 14 14 14 14 13 14 14 14 13 13 12 11 10 10 11 11 12 11 12 11
10 11 15 17 17 17 17 16 16 16 16 16 16 16 16 15 15 15 14 14 13 13 13 13 13 13 13 13 13 13 13 12 11 10 10 10 10 11 11 12 12 12 12
10 10 11 14 15 16 16 16 16 15 16 16 16 16 16 15 15 14 14 13 13 13 13 13 13 13 13 13 13 13 13 12 12 10 9 9 10 11 11 12 12 12 12
9 9 9 12 13 13 14 15 15 15 16 16 16 16 16 15 15 14 13 13 13 13 12 12 12 12 12 12 12 12 12 12 11 10 9 9 10 11 11 11 12 12 12
9 8 9 10 11 12 13 14 15 15 16 16 15 16 15 14 14 13 13 13 13 12 12 12 12 12 12 12 12 12 11 10 10 10 9 10 10 11 11 11 11 12 12
11 9 8 9 10 12 11 12 12 12 13 14 14 14 14 14 13 12 13 13 12 12 12 12 12 11 11 10 10 10 10 10 10 9 9 10 10 11 11 11 11 12 12
10 10 9 9 10 10 9 10 10 10 11 13 13 14 14 13 12 12 11 11 11 11 11 11 11 10 10 9 9 9 10 9 9 9 9 10 10 11 11 11 11 12 12
10 10 9 9 10 9 10 9 9 9 9 9 11 13 12 9 9 9 9 9 9 9 9 9 9 9 9 9 9 8 9 8 8 9 9 10 10 10 11 11 11 12 12
11 10 9 9 9 9 9 8 8 8 9 10 10 11 11 9 7 7 7 8 8 8 8 7 7 7 7 7 7 7 7 7 8 8 9 10 11 11 11 11 12 12 12
11 11 9 9 9 10 7 7 7 8 9 9 9 10 11 10 9 7 7 7 7 7 7 7 6 6 5 5 5 6 6 6 7 7 8 9 10 11 11 12 12 12 13
11 10 10 9 9 9 8 8 8 8 9 8 8 9 10 10 10 8 6 5 5 7 8 7 6 6 4 4 3 4 4 5 6 6 7 8 9 10 11 12 12 13 13
11 10 10 9 9 8 7 7 7 8 8 8 8 9 9 9 10 9 6 5 6 7 7 5 3 3 3 2 2 2 3 3 4 5 6 7 8 8 9 12 13 13 14
11 11 10 9 9 8 7 7 7 8 7 7 8 8 8 9 9 9 6 5 6 6 5 3 3 2 2 2 1 2 2 2 2 3 4 6 7 7 8 10 12 13 14
9 9 10 9 8 8 7 6 5 5 5 6 6 7 8 8 8 8 7 6 6 5 3 3 3 3 2 1 1 2 2 2 2 2 2 4 6 7 8 9 10 11 13
8 9 10 10 9 8 6 5 4 4 3 3 4 6 8 8 8 8 6 5 5 3 3 3 2 3 3 2 2 3 3 2 1 1 2 2 4 6 7 8 9 10 11
10 10 9 10 10 9 6 5 3 4 3 3 4 5 6 7 7 7 6 4 4 3 4 3 3 2 2 3 2 2 3 4 3 2 2 1 3 5 5 7 9 9 10
9 10 10 10 10 9 8 6 5 4 4 2 2 2 3 6 7 7 6 5 4 4 3 2 3 3 2 1 2 2 1 2 4 3 2 2 2 3 4 6 7 9 10
7 7 8 9 9 9 9 8 9 6 5 4 4 3 3 5 6 6 6 5 4 3 3 2 2 2 3 1 1 2 1 2 1 4 3 2 3 4 4 6 7 8 9
5 6 6 8 8 8 8 9 9 6 4 3 4 4 3 3 5 6 6 5 4 3 3 3 3 2 2 2 1 1 1 1 0 1 4 5 4 3 4 5 5 7 9
3 4 5 7 7 8 8 8 8 9 7 7 5 5 4 2 3 4 5 5 4 3 3 3 3 3 2 2 2 1 1 1 1 1 3 6 6 5 5 4 4 6 8
Wind_Direction
164 164 153 144 138 134 130 126 122 118 115 113 112 110 109 107 104 101 99 96 93 90 89 87 84 82 80 78 76 75 73 70 68 66 65 64 63 63 62 58 56 51 52
149 156 150 145 140 136 132 128 122 119 116 114 113 112 111 108 105 102 99 97 94 91 89 87 84 82 80 79 77 75 74 72 70 68 63 59 58 61 60 56 54 52 51
142 149 148 145 141 138 134 129 125 122 119 117 116 114 112 109 105 103 100 97 94 91 89 86 84 82 80 78 77 76 75 74 72 67 59 50 52 59 58 55 52 50 48
138 143 146 145 142 139 136 132 130 127 123 120 118 116 114 110 107 104 100 97 94 92 90 87 84 81 80 78 76 75 75 75 71 64 53 47 48 55 54 53 50 48 46
132 138 142 144 143 140 138 135 132 130 126 122 120 118 115 111 108 105 101 98 96 93 90 88 85 82 80 78 77 76 76 74 68 59 51 44 43 52 52 50 47 45 42
130 136 142 140 140 140 138 136 134 132 128 125 122 120 117 113 109 106 103 100 97 94 91 88 85 83 81 80 79 77 75 72 63 55 47 41 40 50 51 48 44 42 39
133 134 141 140 139 138 138 137 134 132 129 127 125 122 118 114 111 107 104 101 99 97 93 89 86 83 81 81 79 77 74 69 62 53 45 38 41 47 47 46 42 39 36
130 129 137 137 136 137 137 135 135 134 131 128 127 124 119 116 112 108 105 103 100 97 93 90 87 83 80 79 77 75 72 67 61 52 42 36 41 46 46 44 40 35 31
123 122 125 128 130 131 132 132 131 131 130 128 125 122 118 116 113 110 106 103 100 97 94 91 87 83 80 79 77 75 70 65 58 48 41 35 41 44 44 41 37 32 27
121 120 118 122 123 124 127 128 128 126 123 122 121 118 115 111 108 107 104 103 100 98 95 93 89 84 81 78 76 74 68 60 53 45 38 39 43 41 39 36 32 27 24
133 126 123 121 120 120 122 123 123 121 118 115 114 113 109 104 102 100 101 101 99 98 97 95 89 85 80 75 74 71 65 56 52 43 38 42 40 38 35 31 27 24 20
152 141 132 127 125 124 123 117 114 114 113 111 112 111 107 103 100 100 98 96 95 95 95 91 86 82 77 72 69 66 61 57 52 42 40 41 38 35 31 28 23 19 15
157 146 140 132 128 126 124 120 114 113 111 111 113 113 110 103 98 95 90 86 87 88 85 84 79 78 77 75 70 64 61 59 54 47 41 41 37 32 28 23 18 15 12
155 149 143 135 130 127 126 125 123 120 117 117 118 119 115 106 98 94 89 86 86 88 85 82 79 78 75 73 73 68 62 59 55 48 41 40 35 28 23 19 14 11 7
156 153 148 141 138 135 129 130 129 127 127 126 123 122 122 117 110 102 94 89 87 92 91 86 83 80 74 68 67 68 62 59 58 53 43 37 33 27 21 16 12 7 3
162 158 150 146 144 139 136 134 135 133 130 127 126 128 127 124 120 112 101 93 89 94 96 95 92 88 79 73 63 59 61 61 59 54 47 39 31 26 21 15 10 6 1
163 157 152 151 144 142 138 137 134 135 133 129 130 131 130 128 125 119 108 99 95 99 96 89 83 81 74 65 55 51 57 59 59 54 50 42 32 22 19 13 8 4 359
158 159 157 154 146 143 139 134 134 135 133 131 131 131 129 130 129 122 112 105 107 103 96 92 79 65 57 48 31 21 40 50 54 53 51 42 31 21 14 10 5 2 358
161 159 158 153 152 146 136 129 126 129 127 130 131 130 130 129 131 126 119 115 114 103 92 93 70 76 64 35 22 14 13 30 31 42 43 35 27 19 13 6 3 359 357
159 159 158 153 149 140 129 117 112 109 113 121 128 133 134 133 132 127 119 116 115 103 84 76 76 56 63 29 22 2 338 336 10 28 29 29 20 11 7 4 2 356 354
155 161 164 160 156 150 148 146 144 146 133 119 124 134 137 136 136 129 122 117 116 114 113 105 86 66 38 18 36 2 345 333 334 345 10 15 5 358 0 0 356 351 350
169 171 172 170 166 165 165 156 139 133 127 123 118 123 136 139 139 137 128 131 126 117 109 102 96 90 50 37 64 44 348 337 339 325 326 322 338 349 350 349 347 346 346
176 179 182 177 171 166 153 132 113 100 92 109 128 134 134 141 137 136 136 134 131 131 141 137 121 116 114 32 46 97 103 278 309 311 303 308 324 329 331 335 337 337 340
187 180 178 174 168 165 158 157 155 160 169 181 170 158 137 137 138 139 138 134 133 131 139 144 122 121 129 124 43 50 131 185 278 312 309 309 319 312 312 321 324 326 330
177 171 168 166 165 165 166 170 167 162 160 144 138 140 138 126 132 136 139 135 131 129 136 130 126 121 130 144 143 128 64 32 159 247 299 313 317 296 301 303 310 320 323
144 151 159 164 166 164 166 172 173 167 158 150 155 162 158 145 127 129 135 135 137 131 134 141 138 134 144 138 141 148 160 183 272 254 282 304 309 305 303 298 304 317 324
Height
1512 1515 1518 1520 1523 1525 1527 1529 1531 1532 1533 1535 1536 1537 1538 1539 1540 1541 1542 1542 1543 1544 1544 1544 1544 1544 1544 1544 1544 1544 1544 1544 1544 1544 1543 1543 1543 1542 1542 1542 1541 1540 1540
1510 1514 1518 1520 1523 1526 1528 1529 1531 1533 1534 1536 1537 1538 1539 1540 1541 1542 1543 1544 1544 1545 1545 1545 1545 1545 1545 1545 1545 1545 1545 1545 1545 1544 1544 1544 1544 1543 1543 1542 1542 1541 1541
1510 1514 1517 1520 1523 1526 1528 1530 1532 1534 1535 1537 1538 1539 1541 1542 1543 1544 1544 1545 1545 1546 1546 1546 1546 1546 1546 1546 1546 1546 1546 1546 1546 1545 1545 1545 1544 1544 1543 1543 1542 1541 1541
1511 1514 1517 1521 1524 1526 1529 1531 1533 1535 1536 1538 1539 1541 1542 1543 1544 1545 1545 1546 1546 1547 1547 1547 1548 1548 1548 1548 1547 1547 1547 1547 1547 1546 1546 1546 1545 1545 1544 1543 1542 1542 1541
1511 1514 1518 1521 1524 1526 1529 1531 1533 1535 1537 1539 1540 1541 1543 1544 1545 1546 1546 1547 1547 1548 1548 1549 1549 1549 1549 1549 1548 1548 1548 1548 1548 1547 1547 1546 1546 1546 1545 1544 1543 1542 1541
1512 1515 1518 1521 1524 1527 1529 1532 1534 1536 1538 1539 1541 1542 1543 1545 1546 1546 1547 1548 1548 1549 1549 1550 1550 1550 1550 1550 1549 1549 1549 1549 1549 1548 1548 1547 1547 1546 1545 1544 1543 1542 1541
1512 1516 1519 1522 1525 1527 1530 1532 1534 1536 1538 1540 1542 1543 1544 1545 1546 1547 1548 1549 1549 1550 1550 1551 1551 1551 1551 1551 1550 1550 1550 1550 1549 1549 1548 1548 1547 1546 1545 1544 1543 1542 1541
1513 1516 1520 1523 1525 1528 1530 1532 1535 1537 1539 1540 1542 1543 1545 1546 1547 1548 1549 1549 1550 1551 1551 1551 1552 1552 1552 1551 1551 1551 1550 1550 1550 1549 1549 1548 1547 1546 1545 1544 1543 1541 1540
1514 1517 1520 1523 1525 1528 1530 1533 1535 1537 1539 1541 1542 1544 1545 1546 1547 1548 1549 1550 1551 1551 1552 1552 1552 1552 1552 1552 1552 1551 1551 1551 1550 1549 1549 1548 1547 1546 1545 1543 1542 1541 1539
1514 1517 1519 1522 1525 1528 1530 1533 1535 1537 1539 1541 1542 1544 1545 1547 1548 1549 1550 1551 1551 1552 1552 1552 1553 1553 1552 1552 1552 1551 1551 1551 1550 1549 1549 1548 1547 1546 1544 1543 1541 1540 1538
1513 1516 1519 1522 1524 1527 1530 1532 1535 1537 1539 1541 1543 1544 1546 1547 1548 1549 1550 1551 1551 1552 1553 1553 1553 1553 1553 1552 1552 1552 1551 1551 1550 1549 1548 1547 1546 1545 1544 1542 1541 1539 1538
1511 1515 1518 1521 1524 1527 1529 1532 1534 1537 1539 1541 1542 1544 1546 1547 1548 1549 1550 1551 1552 1552 1553 1553 1553 1553 1553 1552 1552 1552 1551 1551 1550 1549 1548 1547 1546 1544 1543 1541 1540 1538 1537
1510 1513 1517 1521 1524 1526 1529 1532 1534 1536 1539 1541 1542 1544 1546 1547 1548 1549 1550 1551 1552 1552 1553 1553 1553 1553 1553 1552 1552 1552 1551 1550 1549 1548 1547 1546 1545 1544 1542 1541 1539 1537 1535
1509 1512 1516 1520 1523 1526 1529 1531 1534 1536 1538 1540 1542 1544 1546 1547 1548 1549 1550 1551 1552 1552 1553 1553 1553 1553 1552 1552 1552 1551 1551 1550 1549 1548 1547 1546 1544 1543 1541 1539 1538 1536 1534
1508 1511 1515 1519 1522 1525 1528 1531 1533 1536 1538 1540 1542 1544 1545 1547 1548 1549 1550 1551 1551 1552 1552 1553 1552 1552 1552 1552 1551 1551 1550 1549 1548 1547 1546 1545 1543 1542 1540 1538 1536 1534 1532
1507 1510 1514 1518 1521 1525 1527 1530 1533 1535 1538 1540 1542 1543 1545 1546 1548 1549 1550 1550 1551 1551 1552 1552 1552 1552 1551 1551 1550 1550 1549 1549 1548 1546 1545 1544 1542 1541 1539 1537 1535 1532 1530
1506 1510 1513 1517 1521 1524 1527 1530 1532 1535 1537 1539 1541 1543 1544 1546 1547 1548 1549 1550 1551 1551 1551 1551 1551 1551 1550 1550 1549 1549 1548 1547 1547 1545 1544 1543 1541 1539 1537 1535 1533 1531 1528
1505 1509 1512 1516 1519 1523 1526 1528 1531 1534 1536 1538 1540 1542 1544 1545 1546 1547 1548 1549 1550 1550 1550 1550 1550 1550 1549 1549 1548 1548 1547 1546 1545 1544 1543 1542 1540 1538 1536 1534 1531 1529 1526
1504 1507 1511 1514 1518 1521 1525 1528 1530 1533 1535 1537 1539 1541 1543 1544 1545 1546 1547 1548 1549 1549 1549 1549 1549 1549 1548 1548 1547 1546 1545 1544 1544 1543 1542 1540 1538 1536 1534 1532 1530 1527 1524
1503 1507 1510 1513 1516 1520 1523 1526 1529 1531 1534 1536 1538 1540 1541 1543 1544 1545 1546 1547 1547 1548 1548 1548 1547 1547 1547 1546 1545 1545 1544 1543 1542 1541 1540 1538 1537 1535 1532 1530 1528 1525 1522
1501 1505 1508 1511 1514 1517 1520 1523 1526 1529 1531 1534 1536 1538 1540 1541 1543 1544 1545 1545 1546 1546 1546 1546 1546 1545 1545 1544 1543 1542 1542 1541 1540 1539 1538 1536 1535 1533 1530 1528 1525 1522 1520
1498 1502 1505 1509 1512 1515 1519 1522 1525 1527 1530 1533 1535 1537 1538 1540 1541 1542 1543 1544 1544 1545 1545 1545 1544 1544 1543 1543 1542 1541 1539 1539 1537 1536 1535 1534 1532 1531 1528 1526 1523 1520 1517
1495 1499 1503 1506 1510 1513 1517 1520 1523 1526 1528 1530 1532 1534 1536 1538 1539 1540 1541 1542 1543 1543 1543 1543 1543 1542 1542 1541 1541 1541 1539 1537 1534 1533 1532 1531 1530 1528 1526 1523 1520 1517 1514
1492 1496 1500 1504 1507 1511 1514 1517 1520 1522 1524 1527 1529 1532 1534 1536 1537 1538 1539 1540 1541 1541 1541 1541 1541 1540 1540 1539 1539 1539 1539 1537 1535 1530 1529 1528 1527 1525 1522 1520 1517 1514 1511
1490 1494 1497 1501 1505 1508 1511 1514 1517 1520 1523 1525 1528 1530 1532 1534 1535 1536 1537 1538 1539 1539 1539 1539 1539 1539 1538 1538 1537 1536 1536 1535 1533 1531 1526 1524 1523 1521 1519 1517 1514 1511 1508
1487 1491 1494 1498 1501 1505 1508 1511 1515 1517 1520 1522 1525 1527 1529 1531 1532 1534 1535 1536 1536 1537 1537 1537 1537 1537 1536 1536 1535 1534 1533 1533 1531 1529 1526 1521 1519 1517 1516 1514 1511 1508 1505